Home > Weather > Wernigerode > Past weeks

Flag for Germany Weather for the Past 2 Weeks in Wernigerode, Saxony-Anhalt, Germany

Now
39 °F

Passing clouds.


Feels Like: 32 °F
Forecast: 31 / 35 °F
Wind: 10 mph from Southwest

Location: Braunschweig Wolfsburg

Current Time: Feb 10, 2016 at 7:19:40 PM

Latest Report: Feb 10, 2016 at 6:50 PM


Visibility: N/A

Pressure: 29.33 "Hg

Humidity: 87%

Dew point: 36 °F

Location of WernigerodeLocation

Historic Weather in Wernigerode — Graph

°F

Wernigerode Temperature Yesterday

Maximum temperature yesterday: 48 °F (at 7:20 PM)
Minimum temperature yesterday: 43 °F (at 4:20 PM)
Average temperature yesterday: 46 °F

High & Low Weather Summary for the Past Weeks

 TemperatureHumidityPressure
High55 °F (Feb 7, 11:50 AM)100% (Feb 1, 7:20 AM)30.24 "Hg (Feb 1, 7:20 AM)
Low37 °F (Jan 28, 7:50 PM)51% (Feb 7, 11:50 AM)28.85 "Hg (Feb 9, 7:20 PM)
Average45 °F76%29.79 "Hg
* Reported Jan 26 5:20 PM — Feb 10 5:50 PM, Wernigerode, Weather by CustomWeather, © 2016

Note: Actual official high and low records may vary slightly from our data, if they occured in-between our weather recording intervals... More about our weather records

Advertising

Wernigerode Weather History for the Previous 24 Hours

 ConditionsComfort  
Time TempWeatherWind HumidityBarometerVisibility
5:50 PM
Wed, Feb 10
39 °FPartly cloudy.10 mph87%29.30 "HgN/A
5:20 PM39 °FBroken clouds.10 mph87%29.30 "HgN/A
4:50 PM39 °FSprinkles. Partly sunny.12 mph87%29.30 "HgN/A
4:20 PM39 °FSprinkles. Broken clouds.15 mph87%29.30 "HgN/A
3:50 PM41 °FMostly cloudy.13 mph76%29.30 "HgN/A
3:20 PM41 °FPartly sunny.14 mph76%29.27 "HgN/A
2:50 PM41 °FPartly sunny.13 mph76%29.27 "HgN/A
2:20 PM41 °FPartly sunny.15 mph76%29.27 "HgN/A
1:50 PM41 °FScattered clouds.15 mph81%29.27 "HgN/A
1:20 PM41 °FCloudy.15 mph81%29.27 "HgN/A
12:50 PM39 °FDrizzle. Cloudy.16 mph81%29.27 "HgN/A
12:20 PM41 °FBroken clouds.16 mph81%29.27 "HgN/A
11:50 AM39 °FCloudy.20 mph81%29.27 "HgN/A
11:20 AM39 °FCloudy.15 mph81%29.27 "HgN/A
10:50 AM39 °FDrizzle. Mostly cloudy.16 mph81%29.27 "HgN/A
10:20 AM39 °FDrizzle. Broken clouds.12 mph81%29.24 "HgN/A
9:50 AM37 °FDrizzle. Mostly cloudy.9 mph87%29.24 "Hg5 mi
9:20 AM39 °FMostly cloudy.12 mph75%29.24 "HgN/A
8:50 AM39 °FBroken clouds.13 mph75%29.24 "HgN/A
8:20 AM37 °FPartly sunny.9 mph81%29.24 "HgN/A
7:50 AM37 °FPartly sunny.8 mph81%29.24 "HgN/A
7:20 AM37 °FPassing clouds.10 mph75%29.21 "HgN/A
6:50 AM37 °FPassing clouds.9 mph81%29.21 "HgN/A
9:50 PM
Tue, Feb 9
46 °FLight rain. Partly cloudy.33 mph76%28.85 "HgN/A
7:50 PM48 °FPartly cloudy.14 mph76%28.85 "HgN/A
7:20 PM48 °FPartly cloudy.16 mph76%28.85 "HgN/A
Weather by CustomWeather, © 2016

See weather overviewHow to use our weather pages